SCOUT X-4 DEB, 3750

Orbit data source: Space-Track

SCOUT X-4 DEB, 3750 is space debris in LEO originally from a launch on Thu, 19 Dec 1963 UTC launched from the Air Force Western Test Range (AFWTR). Debris objects in space refer to the collection of defunct objects orbiting the Earth. Examples of debris include non-operational satellites, rocket bodies, and fragments generated from explosions, collisions, or faulty payload assembly.

Loading next visibility...
Identifier
3750, 1963-053J
Orbit
LEO
Country
Flag of USUS
Related business
Manufacturer
Unknown
Mission
Spacecraft
Bus & Motor
Unknown
Mass
Unknown
Launch date (UTC)
1963-12-19 (63 years ago)
Launch vehicle
Unknown
Launch site
Air Force Western Test Range (AFWTR)
Object type
Payload
Rocket body
Debris
Shape & HBR
Unknown shape, 0.1 m
Radar Cross Section
Medium (>0.1 m² and <1 m²)

Expand to show TLE details & history
Last TLE update: 15 hours ago

TLE from 15 hours ago
0 SCOUT X-4 DEB
1 03750U 63053J   26174.96822803  .00030008  00000-0  25190-2 0  9990
2 03750  78.5630  20.3413 0144898 340.4220  19.1452 14.90323800809579
Epoch: 2026-06-23T23:14Z
TLE epoch observation values (Epoch: 2026-06-23T23:14:14.901Z)
Latitude
-0.00002°
Longitude
119.64702°
Altitude
504.497 km
Speed
7.664 km/s
True Right ascension
01h 21m 21s
True Declination
0° 00' 00"
Sunlit
Object was in daylight at epoch
Visualization orbit readout
Latitude
Unknown
Longitude
Unknown
Altitude
Unknown
Speed
Unknown
Apparent Right ascension
Unknown
Apparent Declination
Unknown
Sunlit
N/A
Visualization observer readout
Local Sidereal Time
01:43:45
Azimuth
Unknown
Elevation
Unknown
Doppler factor
Unknown
Orbital elements
Apogee altitude
695.172 km
Perigee altitude
493.118 km
Semi-major axis
6,972.282 km
Eccentricity
0.01449
Inclination
78.563°
RAAN
20.3413°
Arg. of periapsis
340.422°
True anomaly
19.69922°
Mean anomaly
19.1452°
Eccentric anomaly
19.42125°
Mean motion
3.72804 °/min
Orbital period
96.57 mins
BSTAR
0.002519
Loading maneuver chart data...
Computing Atmospheric mass density...
Loading historical data...
Loading historical data...
Loading historical data...
Loading historical data...
Loading historical data...
Loading historical data...
Loading historical data...

Documentation

Showing up to 5 results
|